map of LPMT home
Great Circle Mapper logo
LPMT - Airport
Location
City:  Montijo, Portugal
Near (Alt.):Air Base Nr 6
ICAO:LPMT

Details
Type:Airport (Aerodrome, Airfield)
Use:Military, International (customs port of entry)
Latitude:3842'14"N (38.703861)
Longitude:902'09"W (-9.035915)
Datum:WGS 1984
Elevation:46 ft (14 m)
Runways:2
Longest:8005 × 148 ft (2440 × 45 m), paved

Time
Time Zone:UTC+0 (DST+1)
Local Time:

Weather
METAR:LPMT 012200Z 31005KT CAVOK 23/15 Q1013
TAF:LPMT 011701Z 0118/0218 28010KT CAVOK
BECMG 0121/0123 24005KT

Related Locations
Nearby:
Farthest:NPL: 12268 mi / 19743 km
New Plymouth, NZ

Find:

   beyond  
but within

Other Information
Maps:
NOTAMs:
Links:
Sources:

  
flag of Portugal   

Airport Diagram

Airport diagram for LPMT

Airport diagram (OBSOLETE) from NGA

Sectional Chart

Flight Planning
at skyvector.com

Satellite Image

Google Maps Satellite View

 

Copyright © 2004-2014 Karl L. Swartz. All rights reserved.
The Great Circle Mapper name and logo are trademarks of the Great Circle Mapper.
All other trademarks mentioned herein belong to their respective owners.
Please see credits for attibutions and further copyright information.

  Follow gcmap on Facebook Follow gcmap on Twitter

hCard Microformat

Geo Microformat